Time,TemperatureF,DewpointF,PressureIn,WindDirection,WindDirectionDegrees,WindSpeedMPH,WindSpeedGustMPH,Humidity,HourlyPrecipIn,Conditions,Clouds,dailyrainin,SoftwareType,DateUTC
2013-07-07 00:01:00,75.0,71.0,30.00,ESE,115,8.0,16.0,87,0.00,,,0.00,,2013-07-07 05:01:00,
2013-07-07 01:01:00,73.0,67.0,30.03,ESE,112,6.0,14.0,82,0.00,,,0.00,,2013-07-07 06:01:00,
2013-07-07 01:11:00,73.0,67.0,30.03,ESE,112,6.0,14.0,82,0.00,,,0.00,,2013-07-07 06:11:00,
2013-07-07 01:21:00,72.0,68.0,30.01,East,82,7.0,9.0,86,0.00,,,0.00,,2013-07-07 06:21:00,
2013-07-07 01:32:00,71.0,67.0,30.01,East,89,9.0,13.0,88,0.00,,,0.00,,2013-07-07 06:32:00,
2013-07-07 01:43:00,71.0,67.0,30.01,East,97,9.0,13.0,87,0.00,,,0.00,,2013-07-07 06:43:00,
2013-07-07 01:52:00,71.0,67.0,30.01,ESE,104,7.0,12.0,87,0.00,,,0.00,,2013-07-07 06:52:00,
2013-07-07 02:02:00,71.0,67.0,30.01,ESE,114,7.0,9.0,88,0.00,,,0.00,,2013-07-07 07:02:00,
2013-07-07 02:11:00,70.0,66.0,30.01,ESE,120,6.0,9.0,88,0.00,,,0.00,,2013-07-07 07:11:00,
2013-07-07 02:22:00,70.0,66.0,30.01,East,97,6.0,9.0,87,0.00,,,0.00,,2013-07-07 07:22:00,
2013-07-07 02:33:00,70.0,66.0,30.01,ESE,110,6.0,9.0,86,0.00,,,0.00,,2013-07-07 07:33:00,
2013-07-07 02:44:00,70.0,65.0,30.01,SE,135,3.0,7.0,85,0.00,,,0.00,,2013-07-07 07:44:00,
2013-07-07 02:53:00,70.0,65.0,30.01,East,101,3.0,6.0,85,0.00,,,0.00,,2013-07-07 07:53:00,
2013-07-07 03:02:00,70.0,66.0,30.01,East,98,8.0,9.0,87,0.00,,,0.00,,2013-07-07 08:02:00,
2013-07-07 03:12:00,70.0,66.0,30.01,SE,124,5.0,9.0,88,0.00,,,0.00,,2013-07-07 08:12:00,
2013-07-07 03:22:00,70.0,66.0,30.01,ESE,112,3.0,7.0,88,0.00,,,0.00,,2013-07-07 08:22:00,
2013-07-07 03:34:00,69.0,66.0,30.01,ESE,105,6.0,8.0,90,0.00,,,0.00,,2013-07-07 08:34:00,
2013-07-07 03:44:00,69.0,66.0,30.01,ESE,118,5.0,7.0,90,0.00,,,0.00,,2013-07-07 08:44:00,
2013-07-07 03:53:00,69.0,66.0,30.01,ESE,106,7.0,8.0,90,0.00,,,0.00,,2013-07-07 08:53:00,
2013-07-07 04:02:00,69.0,66.0,30.01,ESE,116,7.0,9.0,90,0.00,,,0.00,,2013-07-07 09:02:00,
2013-07-07 04:12:00,69.0,66.0,30.01,ESE,119,7.0,10.0,90,0.00,,,0.00,,2013-07-07 09:12:00,
2013-07-07 04:22:00,69.0,66.0,30.02,ESE,108,5.0,10.0,91,0.00,,,0.00,,2013-07-07 09:22:00,
2013-07-07 04:34:00,68.0,66.0,30.01,East,93,7.0,10.0,92,0.00,,,0.00,,2013-07-07 09:34:00,
2013-07-07 04:43:00,68.0,66.0,30.01,SE,141,6.0,10.0,94,0.00,,,0.00,,2013-07-07 09:43:00,
2013-07-07 04:53:00,68.0,66.0,30.01,SE,135,7.0,12.0,93,0.00,,,0.00,,2013-07-07 09:53:00,
2013-07-07 05:03:00,68.0,66.0,30.01,SE,139,3.0,10.0,93,0.00,,,0.00,,2013-07-07 10:03:00,
2013-07-07 05:22:00,68.0,66.0,30.01,SE,143,4.0,8.0,92,0.00,,,0.00,,2013-07-07 10:22:00,
2013-07-07 05:32:00,67.0,65.0,30.01,SE,128,5.0,8.0,92,0.00,,,0.00,,2013-07-07 10:32:00,
2013-07-07 05:43:00,67.0,64.0,30.01,SSE,156,6.0,10.0,91,0.00,,,0.00,,2013-07-07 10:43:00,
2013-07-07 05:52:00,68.0,65.0,30.02,SSE,157,6.0,10.0,90,0.00,,,0.00,,2013-07-07 10:52:00,
2013-07-07 06:02:00,68.0,65.0,30.02,SSE,158,6.0,12.0,90,0.00,,,0.00,,2013-07-07 11:02:00,
2013-07-07 06:11:00,68.0,65.0,30.02,SSE,166,6.0,9.0,90,0.00,,,0.00,,2013-07-07 11:11:00,
2013-07-07 06:23:00,68.0,65.0,30.02,SSE,163,6.0,9.0,91,0.00,,,0.00,,2013-07-07 11:23:00,
2013-07-07 06:34:00,68.0,65.0,30.02,SSE,156,5.0,9.0,91,0.00,,,0.00,,2013-07-07 11:34:00,
2013-07-07 06:43:00,68.0,65.0,30.03,SSE,149,6.0,10.0,91,0.00,,,0.00,,2013-07-07 11:43:00,
2013-07-07 06:53:00,68.0,65.0,30.03,SE,134,3.0,8.0,90,0.00,,,0.00,,2013-07-07 11:53:00,
2013-07-07 07:02:00,69.0,66.0,30.03,SE,137,5.0,12.0,89,0.00,,,0.00,,2013-07-07 12:02:00,
2013-07-07 07:12:00,70.0,66.0,30.03,SSE,149,6.0,9.0,88,0.00,,,0.00,,2013-07-07 12:12:00,
2013-07-07 07:22:00,70.0,66.0,30.03,SSE,155,5.0,9.0,87,0.00,,,0.00,,2013-07-07 12:22:00,
2013-07-07 07:34:00,71.0,67.0,30.03,SSE,152,7.0,13.0,86,0.00,,,0.00,,2013-07-07 12:34:00,
2013-07-07 07:43:00,71.0,66.0,30.04,SSE,152,8.0,14.0,85,0.00,,,0.00,,2013-07-07 12:43:00,
2013-07-07 07:52:00,72.0,67.0,30.04,SE,126,6.0,9.0,84,0.00,,,0.00,,2013-07-07 12:52:00,
2013-07-07 08:02:00,72.0,67.0,30.03,SE,142,6.0,13.0,84,0.00,,,0.00,,2013-07-07 13:02:00,
2013-07-07 08:11:00,73.0,67.0,30.04,SSE,149,7.0,15.0,82,0.00,,,0.00,,2013-07-07 13:11:00,
2013-07-07 08:22:00,73.0,67.0,30.03,SSE,156,9.0,15.0,81,0.00,,,0.00,,2013-07-07 13:22:00,
2013-07-07 08:34:00,73.0,67.0,30.03,SE,144,9.0,15.0,81,0.00,,,0.00,,2013-07-07 13:34:00,
2013-07-07 08:43:00,74.0,67.0,30.03,SSE,157,10.0,18.0,80,0.00,,,0.00,,2013-07-07 13:43:00,
2013-07-07 08:52:00,74.0,67.0,30.04,SSE,155,8.0,17.0,78,0.00,,,0.00,,2013-07-07 13:52:00,
2013-07-07 09:02:00,75.0,68.0,30.04,South,173,7.0,14.0,78,0.00,,,0.00,,2013-07-07 14:02:00,
2013-07-07 09:12:00,75.0,67.0,30.04,SSE,154,7.0,17.0,76,0.00,,,0.00,,2013-07-07 14:12:00,
2013-07-07 09:22:00,76.0,67.0,30.04,SSE,158,9.0,14.0,75,0.00,,,0.00,,2013-07-07 14:22:00,
2013-07-07 09:34:00,77.0,67.0,30.03,South,170,9.0,15.0,72,0.00,,,0.00,,2013-07-07 14:34:00,
2013-07-07 09:43:00,77.0,68.0,30.03,SE,144,7.0,16.0,74,0.00,,,0.00,,2013-07-07 14:43:00,
2013-07-07 09:53:00,78.0,69.0,30.03,SSE,161,9.0,17.0,73,0.00,,,0.00,,2013-07-07 14:53:00,
2013-07-07 10:02:00,78.0,68.0,30.03,SE,135,10.0,15.0,72,0.00,,,0.00,,2013-07-07 15:02:00,
2013-07-07 10:11:00,79.0,68.0,30.03,SSE,161,9.0,15.0,70,0.00,,,0.00,,2013-07-07 15:11:00,
2013-07-07 10:22:00,79.0,68.0,30.03,SSE,159,10.0,15.0,70,0.00,,,0.00,,2013-07-07 15:22:00,
2013-07-07 10:34:00,80.0,68.0,30.03,SSE,164,7.0,14.0,68,0.00,,,0.00,,2013-07-07 15:34:00,
2013-07-07 10:43:00,81.0,69.0,30.03,ESE,119,9.0,16.0,66,0.00,,,0.00,,2013-07-07 15:43:00,
2013-07-07 10:52:00,81.0,69.0,30.03,South,177,7.0,15.0,66,0.00,,,0.00,,2013-07-07 15:52:00,
2013-07-07 11:01:00,81.0,69.0,30.03,SE,131,7.0,18.0,66,0.00,,,0.00,,2013-07-07 16:01:00,
2013-07-07 11:11:00,82.0,68.0,30.03,ESE,121,9.0,15.0,62,0.00,,,0.00,,2013-07-07 16:11:00,
2013-07-07 11:23:00,83.0,69.0,30.03,SE,127,12.0,17.0,62,0.00,,,0.00,,2013-07-07 16:23:00,
2013-07-07 11:43:00,83.0,69.0,30.03,SSE,167,10.0,18.0,63,0.00,,,0.00,,2013-07-07 16:43:00,
2013-07-07 11:53:00,83.0,69.0,30.03,SE,128,10.0,18.0,63,0.00,,,0.00,,2013-07-07 16:53:00,
2013-07-07 12:02:00,84.0,70.0,30.03,SE,125,10.0,14.0,62,0.00,,,0.00,,2013-07-07 17:02:00,
2013-07-07 12:12:00,85.0,70.0,30.03,ESE,114,9.0,17.0,60,0.00,,,0.00,,2013-07-07 17:12:00,
2013-07-07 12:22:00,85.0,70.0,30.03,SSE,153,8.0,17.0,60,0.00,,,0.00,,2013-07-07 17:22:00,
2013-07-07 12:34:00,84.0,69.0,30.02,SE,139,10.0,15.0,60,0.00,,,0.00,,2013-07-07 17:34:00,
2013-07-07 12:43:00,85.0,69.0,30.02,SE,130,10.0,14.0,58,0.00,,,0.00,,2013-07-07 17:43:00,
2013-07-07 12:53:00,86.0,70.0,30.02,ESE,114,9.0,17.0,60,0.00,,,0.00,,2013-07-07 17:53:00,
2013-07-07 13:02:00,86.0,70.0,30.02,SE,145,9.0,17.0,60,0.00,,,0.00,,2013-07-07 18:02:00,
2013-07-07 13:11:00,87.0,70.0,30.02,SE,135,9.0,18.0,58,0.00,,,0.00,,2013-07-07 18:11:00,
2013-07-07 13:22:00,86.0,69.0,30.02,SE,124,10.0,17.0,57,0.00,,,0.00,,2013-07-07 18:22:00,
2013-07-07 13:33:00,87.0,70.0,30.02,ESE,102,11.0,17.0,58,0.00,,,0.00,,2013-07-07 18:33:00,
2013-07-07 13:43:00,87.0,70.0,30.01,ESE,121,8.0,21.0,57,0.00,,,0.00,,2013-07-07 18:43:00,
2013-07-07 13:53:00,88.0,70.0,30.01,ESE,109,13.0,18.0,56,0.00,,,0.00,,2013-07-07 18:53:00,
2013-07-07 14:01:00,88.0,70.0,30.01,SE,137,9.0,18.0,55,0.00,,,0.00,,2013-07-07 19:01:00,
2013-07-07 14:11:00,88.0,69.0,30.01,SE,124,13.0,20.0,54,0.00,,,0.00,,2013-07-07 19:11:00,
2013-07-07 14:22:00,87.0,69.0,30.01,ESE,115,13.0,20.0,55,0.00,,,0.00,,2013-07-07 19:22:00,
2013-07-07 14:34:00,88.0,70.0,30.00,SE,130,10.0,20.0,56,0.00,,,0.00,,2013-07-07 19:34:00,
2013-07-07 14:43:00,88.0,70.0,30.00,SE,136,12.0,21.0,56,0.00,,,0.00,,2013-07-07 19:43:00,
2013-07-07 14:54:00,88.0,70.0,30.00,SE,138,9.0,18.0,56,0.00,,,0.00,,2013-07-07 19:54:00,
2013-07-07 15:02:00,89.0,70.0,30.00,SSE,155,10.0,25.0,54,0.00,,,0.00,,2013-07-07 20:02:00,
2013-07-07 15:11:00,88.0,69.0,30.00,SE,144,10.0,18.0,54,0.00,,,0.00,,2013-07-07 20:11:00,
2013-07-07 15:22:00,88.0,69.0,30.00,SSE,161,11.0,20.0,54,0.00,,,0.00,,2013-07-07 20:22:00,
2013-07-07 15:34:00,89.0,70.0,30.00,SE,132,12.0,20.0,53,0.00,,,0.00,,2013-07-07 20:34:00,
2013-07-07 15:42:00,89.0,70.0,29.99,SE,128,13.0,20.0,53,0.00,,,0.00,,2013-07-07 20:42:00,
2013-07-07 15:53:00,89.0,71.0,29.99,SE,139,10.0,24.0,56,0.00,,,0.00,,2013-07-07 20:53:00,
2013-07-07 16:02:00,89.0,71.0,29.99,SE,133,12.0,18.0,55,0.00,,,0.00,,2013-07-07 21:02:00,
2013-07-07 16:11:00,89.0,70.0,29.99,ESE,122,14.0,22.0,53,0.00,,,0.00,,2013-07-07 21:11:00,
2013-07-07 16:22:00,89.0,68.0,29.99,SE,129,12.0,20.0,51,0.00,,,0.00,,2013-07-07 21:22:00,
2013-07-07 16:33:00,88.0,69.0,29.98,SE,142,8.0,18.0,53,0.00,,,0.00,,2013-07-07 21:33:00,
2013-07-07 16:43:00,88.0,69.0,29.98,SSE,162,10.0,18.0,54,0.00,,,0.00,,2013-07-07 21:43:00,
2013-07-07 16:53:00,88.0,69.0,29.98,SE,137,9.0,18.0,54,0.00,,,0.00,,2013-07-07 21:53:00,
2013-07-07 17:01:00,89.0,69.0,29.98,SSE,150,12.0,21.0,52,0.00,,,0.00,,2013-07-07 22:01:00,
2013-07-07 17:11:00,89.0,69.0,29.98,SE,139,10.0,20.0,52,0.00,,,0.00,,2013-07-07 22:11:00,
2013-07-07 17:22:00,89.0,68.0,29.98,SSE,153,9.0,16.0,51,0.00,,,0.00,,2013-07-07 22:22:00,
2013-07-07 17:34:00,89.0,68.0,29.98,SSE,157,12.0,20.0,51,0.00,,,0.00,,2013-07-07 22:34:00,
2013-07-07 17:43:00,89.0,68.0,29.98,SSE,158,11.0,18.0,50,0.00,,,0.00,,2013-07-07 22:43:00,
2013-07-07 17:53:00,89.0,70.0,29.98,SSE,155,9.0,18.0,53,0.00,,,0.00,,2013-07-07 22:53:00,
2013-07-07 18:02:00,89.0,67.0,29.98,South,181,10.0,18.0,49,0.00,,,0.00,,2013-07-07 23:02:00,
2013-07-07 18:12:00,89.0,68.0,29.98,SSE,168,10.0,17.0,50,0.00,,,0.00,,2013-07-07 23:12:00,
2013-07-07 18:22:00,88.0,69.0,29.98,South,173,10.0,20.0,53,0.00,,,0.00,,2013-07-07 23:22:00,
2013-07-07 18:33:00,88.0,69.0,29.98,South,183,8.0,21.0,54,0.00,,,0.00,,2013-07-07 23:33:00,
2013-07-07 18:43:00,88.0,68.0,29.98,South,174,7.0,16.0,52,0.00,,,0.00,,2013-07-07 23:43:00,
2013-07-07 18:53:00,88.0,69.0,29.98,South,184,9.0,20.0,54,0.00,,,0.00,,2013-07-07 23:53:00,
2013-07-07 19:01:00,87.0,69.0,29.98,SSE,156,7.0,14.0,56,0.00,,,0.00,,2013-07-08 00:01:00,
2013-07-07 19:12:00,87.0,69.0,29.98,SSE,162,6.0,14.0,55,0.00,,,0.00,,2013-07-08 00:12:00,
2013-07-07 19:22:00,87.0,69.0,29.98,South,176,6.0,12.0,56,0.00,,,0.00,,2013-07-08 00:22:00,
2013-07-07 19:33:00,87.0,70.0,29.98,SSE,163,4.0,12.0,58,0.00,,,0.00,,2013-07-08 00:33:00,
2013-07-07 19:43:00,86.0,70.0,29.99,SE,137,4.0,10.0,60,0.00,,,0.00,,2013-07-08 00:43:00,
2013-07-07 19:53:00,86.0,71.0,29.99,SE,146,3.0,7.0,61,0.00,,,0.00,,2013-07-08 00:53:00,
2013-07-07 20:01:00,86.0,71.0,29.99,SE,125,3.0,7.0,61,0.00,,,0.00,,2013-07-08 01:01:00,
2013-07-07 20:11:00,85.0,71.0,29.99,SE,142,5.0,7.0,63,0.00,,,0.00,,2013-07-08 01:11:00,
2013-07-07 20:22:00,84.0,70.0,29.99,SSE,152,0.0,5.0,64,0.00,,,0.00,,2013-07-08 01:22:00,
2013-07-07 20:32:00,83.0,70.0,29.99,South,169,4.0,7.0,65,0.00,,,0.00,,2013-07-08 01:32:00,
2013-07-07 20:43:00,83.0,70.0,29.99,SSE,162,4.0,8.0,66,0.00,,,0.00,,2013-07-08 01:43:00,
2013-07-07 20:52:00,82.0,70.0,29.99,East,88,1.0,6.0,67,0.00,,,0.00,,2013-07-08 01:52:00,
2013-07-07 21:02:00,81.0,70.0,29.99,East,99,4.0,6.0,70,0.00,,,0.00,,2013-07-08 02:02:00,
2013-07-07 21:11:00,80.0,71.0,30.00,SE,144,3.0,6.0,74,0.00,,,0.00,,2013-07-08 02:11:00,
2013-07-07 21:22:00,79.0,71.0,30.00,East,90,2.0,5.0,77,0.00,,,0.00,,2013-07-08 02:22:00,
2013-07-07 21:33:00,79.0,72.0,30.00,NE,37,0.0,3.0,79,0.00,,,0.00,,2013-07-08 02:33:00,
2013-07-07 21:42:00,78.0,71.0,30.00,NE,37,0.0,0.0,80,0.00,,,0.00,,2013-07-08 02:42:00,
2013-07-07 21:52:00,78.0,72.0,30.00,SE,124,1.0,5.0,82,0.00,,,0.00,,2013-07-08 02:52:00,
2013-07-07 22:01:00,77.0,71.0,30.01,ESE,105,3.0,6.0,82,0.00,,,0.00,,2013-07-08 03:01:00,
2013-07-07 22:12:00,77.0,71.0,30.01,SE,130,5.0,7.0,83,0.00,,,0.00,,2013-07-08 03:12:00,
2013-07-07 22:23:00,77.0,71.0,30.01,SE,130,4.0,7.0,83,0.00,,,0.00,,2013-07-08 03:23:00,
2013-07-07 22:34:00,77.0,72.0,30.01,SE,135,5.0,7.0,84,0.00,,,0.00,,2013-07-08 03:34:00,
2013-07-07 22:42:00,77.0,72.0,30.01,SE,137,7.0,9.0,84,0.00,,,0.00,,2013-07-08 03:42:00,
2013-07-07 22:52:00,76.0,71.0,30.01,SE,138,7.0,10.0,84,0.00,,,0.00,,2013-07-08 03:52:00,
2013-07-07 23:02:00,76.0,71.0,30.01,SE,136,6.0,9.0,84,0.00,,,0.00,,2013-07-08 04:02:00,
2013-07-07 23:12:00,76.0,71.0,30.02,SE,128,4.0,8.0,85,0.00,,,0.00,,2013-07-08 04:12:00,
2013-07-07 23:22:00,76.0,71.0,30.02,SE,128,4.0,8.0,85,0.00,,,0.00,,2013-07-08 04:22:00,
2013-07-07 23:33:00,76.0,72.0,30.02,SE,137,7.0,9.0,87,0.00,,,0.00,,2013-07-08 04:33:00,
2013-07-07 23:42:00,76.0,72.0,30.02,SE,136,6.0,8.0,88,0.00,,,0.00,,2013-07-08 04:42:00,
2013-07-07 23:53:00,76.0,72.0,30.02,SE,132,6.0,8.0,87,0.00,,,0.00,,2013-07-08 04:53:00,